Weather History for K1F0 - December, 2013

Change the Weather History Date:

Tuesday, December 17, 2013

  Actual Average (KADM) Record (KADM)
Temperature  
Mean Temperature 50 °F -  
Max Temperature 71 °F 51 °F 73 °F (2006)
Min Temperature 30 °F 32 °F 19 °F (2000)
Degree Days  
Heating Degree Days 14    
Moisture  
Dew Point 31 °F    
Average Humidity 59    
Maximum Humidity 100    
Minimum Humidity 19    
Precipitation  
Precipitation 0.00 in - - ()
Sea Level Pressure  
Sea Level Pressure 30.25 in    
Wind  
Wind Speed 1 mph (ENE)    
Max Wind Speed 8 mph    
Max Gust Speed -    
Visibility 10 miles    
Events      
Averages and records for this station are not official NWS values.
T = Trace of Precipitation, MM = Missing Value Source: NWS Daily Summary

Daily Weather History Graph

Daily Weather History Graph

Search for Another Location

Airport or City:

Trip Planner

Search our weather history database for the weather conditions in past years. The results will help you decide how hot, cold, wet, or windy it might be!

Date:

Astronomy

Dec. 17, 2013 Rise Set
Actual Time 7:28 AM CST 5:21 PM CST
Civil Twilight 7:00 AM CST 5:49 PM CST
Nautical Twilight 6:29 AM CST 6:20 PM CST
Astronomical Twilight 5:58 AM CST 6:51 PM CST
Moon 5:59 PM CST (12/17) 7:28 AM CST (12/17)
Length of Visible Light 10h 48m
Length of Day
9h 52m
Full, 100% of the Moon is Illuminated
Dec 17
Full
Dec 25
Last Quarter
Jan 1
New
Jan 7
First Quarter
Jan 15
Full

Hourly Weather History & Observations

Time (CST) Temp. Windchill Dew Point Humidity Pressure Visibility Wind Dir Wind Speed Gust Speed Precip Events Conditions
12:15 AM 35.6 °F - 32.0 °F 87% 30.19 in 10.0 mi Calm Calm - N/A   Clear
12:35 AM 35.6 °F - 33.8 °F 93% 30.19 in 10.0 mi Calm Calm - N/A   Clear
12:55 AM 33.8 °F - 32.0 °F 93% 30.18 in 10.0 mi Calm Calm - N/A   Clear
1:15 AM 33.8 °F - 32.0 °F 93% 30.18 in 10.0 mi Calm Calm - N/A   Clear
1:35 AM 33.8 °F - 32.0 °F 93% 30.18 in 10.0 mi Calm Calm - N/A   Clear
1:55 AM 33.8 °F - 32.0 °F 93% 30.18 in 10.0 mi Calm Calm - N/A   Clear
2:15 AM 33.8 °F - 32.0 °F 93% 30.19 in 10.0 mi Calm Calm - N/A   Clear
2:35 AM 33.8 °F - 32.0 °F 93% 30.20 in 10.0 mi Calm Calm - N/A   Clear
2:55 AM 32.0 °F - 32.0 °F 100% 30.20 in 10.0 mi Calm Calm - N/A   Clear
3:15 AM 32.0 °F - 32.0 °F 100% 30.21 in 10.0 mi Calm Calm - N/A   Clear
3:35 AM 32.0 °F - 32.0 °F 100% 30.21 in 10.0 mi Calm Calm - N/A   Clear
3:55 AM 32.0 °F - 32.0 °F 100% 30.20 in 10.0 mi Calm Calm - N/A   Clear
4:15 AM 32.0 °F - 32.0 °F 100% 30.20 in 10.0 mi Calm Calm - N/A   Clear
4:35 AM 32.0 °F - 32.0 °F 100% 30.20 in 10.0 mi Calm Calm - N/A   Clear
4:55 AM 32.0 °F - 32.0 °F 100% 30.20 in 10.0 mi Calm Calm - N/A   Clear
5:15 AM 32.0 °F - 32.0 °F 100% 30.20 in 10.0 mi Calm Calm - N/A   Clear
5:35 AM 30.2 °F - 30.2 °F 100% 30.20 in 10.0 mi Calm Calm - N/A   Clear
5:55 AM 30.2 °F - 30.2 °F 100% 30.20 in 10.0 mi Calm Calm - N/A   Clear
6:15 AM 32.0 °F - 32.0 °F 100% 30.22 in 10.0 mi Calm Calm - N/A   Clear
6:35 AM 32.0 °F - 30.2 °F 93% 30.22 in 10.0 mi Calm Calm - N/A   Clear
6:55 AM 32.0 °F - 30.2 °F 93% 30.23 in 10.0 mi Calm Calm - N/A   Clear
7:15 AM 30.2 °F - 30.2 °F 100% 30.23 in 10.0 mi Calm Calm - N/A   Clear
7:35 AM 30.2 °F - 30.2 °F 100% 30.24 in 10.0 mi Calm Calm - N/A   Clear
7:55 AM 32.0 °F - 32.0 °F 100% 30.25 in 10.0 mi Calm Calm - N/A   Clear
8:15 AM 32.0 °F - 32.0 °F 100% 30.25 in 10.0 mi Calm Calm - N/A   Clear
8:35 AM 33.8 °F - 33.8 °F 100% 30.27 in 10.0 mi Calm Calm - N/A   Clear
8:55 AM 41.0 °F - 37.4 °F 87% 30.27 in 10.0 mi Calm Calm - N/A   Clear
9:15 AM 44.6 °F - 35.6 °F 71% 30.27 in 10.0 mi Calm Calm - N/A   Clear
9:35 AM 46.4 °F - 35.6 °F 66% 30.28 in 10.0 mi Calm Calm - N/A   Clear
9:55 AM 50.0 °F - 35.6 °F 58% 30.28 in 10.0 mi Calm Calm - N/A   Clear
10:15 AM 53.6 °F - 33.8 °F 47% 30.29 in 10.0 mi Calm Calm - N/A   Clear
10:35 AM 55.4 °F - 32.0 °F 41% 30.29 in 10.0 mi Calm Calm - N/A   Clear
10:55 AM 59.0 °F - 32.0 °F 36% 30.29 in 10.0 mi Calm Calm - N/A   Clear
11:15 AM 60.8 °F - 32.0 °F 34% 30.29 in 10.0 mi Calm Calm - N/A   Clear
11:35 AM 62.6 °F - 30.2 °F 30% 30.28 in 10.0 mi NE 4.6 mph - N/A   Clear
11:55 AM 62.6 °F - 30.2 °F 30% 30.27 in 10.0 mi Calm Calm - N/A   Clear
12:15 PM 64.4 °F - 30.2 °F 28% 30.27 in 10.0 mi Calm Calm - N/A   Clear
12:35 PM 66.2 °F - 30.2 °F 26% 30.26 in 10.0 mi NE 3.5 mph - N/A   Clear
12:55 PM 68.0 °F - 30.2 °F 24% 30.25 in 10.0 mi NNE 3.5 mph - N/A   Clear
1:15 PM 68.0 °F - 30.2 °F 24% 30.25 in 10.0 mi Calm Calm - N/A   Clear
1:35 PM 69.8 °F - 30.2 °F 23% 30.24 in 10.0 mi Calm Calm - N/A   Clear
1:55 PM 69.8 °F - 28.4 °F 21% 30.23 in 10.0 mi Calm Calm - N/A   Clear
2:15 PM 69.8 °F - 26.6 °F 20% 30.23 in 10.0 mi NNE 4.6 mph - N/A   Clear
2:35 PM 71.6 °F - 28.4 °F 20% 30.23 in 10.0 mi Calm Calm - N/A   Clear
2:55 PM 71.6 °F - 26.6 °F 19% 30.23 in 10.0 mi NE 3.5 mph - N/A   Clear
3:15 PM 71.6 °F - 28.4 °F 20% 30.23 in 10.0 mi East 3.5 mph - N/A   Clear
3:35 PM 71.6 °F - 28.4 °F 20% 30.23 in 10.0 mi NE 5.8 mph - N/A   Clear
3:55 PM 71.6 °F - 30.2 °F 22% 30.24 in 10.0 mi NE 5.8 mph - N/A   Clear
4:15 PM 69.8 °F - 32.0 °F 25% 30.24 in 10.0 mi East 5.8 mph - N/A   Clear
4:35 PM 68.0 °F - 30.2 °F 24% 30.25 in 10.0 mi NE 8.1 mph - N/A   Clear
4:55 PM 64.4 °F - 32.0 °F 30% 30.25 in 10.0 mi East 6.9 mph - N/A   Clear
5:15 PM 62.6 °F - 32.0 °F 32% 30.26 in 10.0 mi ENE 5.8 mph - N/A   Clear
5:35 PM 60.8 °F - 30.2 °F 31% 30.27 in 10.0 mi ENE 4.6 mph - N/A   Clear
5:55 PM 59.0 °F - 30.2 °F 34% 30.27 in 10.0 mi Calm Calm - N/A   Clear
6:15 PM 57.2 °F - 30.2 °F 36% 30.27 in 10.0 mi Calm Calm - N/A   Clear
6:35 PM 55.4 °F - 30.2 °F 38% 30.27 in 10.0 mi ENE 3.5 mph - N/A   Clear
6:55 PM 53.6 °F - 30.2 °F 41% 30.28 in 10.0 mi ENE 3.5 mph - N/A   Clear
7:15 PM 53.6 °F - 30.2 °F 41% 30.28 in 10.0 mi East 3.5 mph - N/A   Clear
7:35 PM 53.6 °F - 30.2 °F 41% 30.29 in 10.0 mi East 3.5 mph - N/A   Clear
7:55 PM 51.8 °F - 28.4 °F 41% 30.29 in 10.0 mi ENE 4.6 mph - N/A   Clear
8:15 PM 51.8 °F - 28.4 °F 41% 30.28 in 10.0 mi NE 4.6 mph - N/A   Clear
8:35 PM 50.0 °F - 28.4 °F 43% 30.28 in 10.0 mi Calm Calm - N/A   Clear
8:55 PM 50.0 °F - 30.2 °F 47% 30.28 in 10.0 mi Calm Calm - N/A   Clear
9:15 PM 50.0 °F - 30.2 °F 47% 30.28 in 10.0 mi Calm Calm - N/A   Clear
9:35 PM 50.0 °F - 28.4 °F 43% 30.28 in 10.0 mi East 3.5 mph - N/A   Clear
9:55 PM 48.2 °F - 28.4 °F 46% 30.28 in 10.0 mi Calm Calm - N/A   Clear
10:15 PM 48.2 °F - 28.4 °F 46% 30.28 in 10.0 mi Calm Calm - N/A   Clear
10:35 PM 48.2 °F - 28.4 °F 46% 30.28 in 10.0 mi Calm Calm - N/A   Clear
10:55 PM 48.2 °F - 26.6 °F 43% 30.27 in 10.0 mi Calm Calm - N/A   Clear
11:15 PM 48.2 °F - 28.4 °F 46% 30.27 in 10.0 mi Calm Calm - N/A   Clear
11:35 PM 46.4 °F 45.2 °F 28.4 °F 50% 30.27 in 10.0 mi NE 3.5 mph - N/A   Clear
11:55 PM 46.4 °F 45.2 °F 28.4 °F 50% 30.27 in 10.0 mi NE 3.5 mph - N/A   Clear